User: anonymous   Login
Location: Ballingbuur
(53.0000°N, 5.7667°E)
Time: 04:57:14
(UTC+00:00)
Language:

Cosmos 1295 Rocket - Orbit

View from above orbital plane
View from above orbital plane
View from above satellite
View from above satellite

Ground track
Ground track

The orbit data is extracted from the following two-line orbital elements,

1 12682U 81077B   21059.53570794  .00000025  00000-0  93573-5 0  9998
2 12682  82.9130  84.6137 0034751 148.7948 211.5284 13.78607593988922
Epoch (UTC): 28 February 2021 12:51:25
Eccentricity: 0.0034751
inclination: 82.9130°
perigee height: 943 km
apogee height: 994 km
right ascension of ascending node: 84.6137°
argument of perigee: 148.7948°
revolutions per day: 13.78607593
mean anomaly at epoch: 211.5284°
orbit number at epoch: 98892

The dashed part of the orbit path shows where the satellite is in the earth's shadow,  

DLR